N3MFL Weather Reports


time (UTC)temp
C
wind
direction
speed
KPH
gust
KPH
rain 1hr
cm
rain 24hr
cm
rain mn
cm
humidity
%
barometer
mb
20260507031026 13 198 0.0 1.6 0.00 0.05 0.05 96 1007.9
20260507030522 13 232 1.6 1.6 0.00 0.05 0.05 96 1007.9
20260507030020 13 187 1.6 1.6 0.00 0.05 0.05 96 1008.0
20260507025516 13 231 1.6 1.6 0.00 0.05 0.05 96 1007.9
20260507025014 13 218 3.2 3.2 0.00 0.05 0.05 96 1007.9
20260507024512 13 211 1.6 3.2 0.00 0.05 0.05 96 1007.8
20260507024008 13 211 3.2 4.8 0.00 0.05 0.05 96 1007.9
20260507023504 13 221 3.2 4.8 0.00 0.05 0.05 96 1007.9
20260507023001 13 231 3.2 4.8 0.00 0.05 0.05 96 1008.1
20260507022458 13 244 3.2 3.2 0.00 0.05 0.05 96 1008.2
20260507021954 13 244 3.2 3.2 0.00 0.05 0.05 96 1007.8
20260507021450 13 221 3.2 3.2 0.00 0.05 0.05 96 1007.9
20260507020947 13 191 4.8 4.8 0.00 0.05 0.05 96 1008.1
20260507020444 13 239 3.2 3.2 0.00 0.05 0.05 96 1008.0
20260507015941 13 168 1.6 3.2 0.00 0.05 0.05 96 1008.2
20260507015439 13 188 0.0 1.6 0.00 0.05 0.05 96 1008.1
20260507014936 13 220 3.2 6.4 0.00 0.05 0.05 95 1008.0
20260507014433 13 184 3.2 3.2 0.00 0.05 0.05 95 1008.0
20260507013929 13 240 4.8 6.4 0.00 0.05 0.05 95 1008.2
20260507013426 13 212 1.6 3.2 0.00 0.05 0.05 95 1008.1
20260507012923 13 207 3.2 3.2 0.00 0.05 0.05 95 1008.1
20260507012420 13 216 3.2 3.2 0.00 0.05 0.05 95 1008.3
20260507011917 13 201 3.2 3.2 0.00 0.05 0.05 96 1008.3
20260507011414 13 236 3.2 3.2 0.00 0.05 0.05 96 1008.5
20260507010913 13 244 3.2 3.2 0.00 0.05 0.05 96 1008.3
20260507010409 13 202 3.2 3.2 0.00 0.05 0.05 96 1008.5
20260507005906 13 194 3.2 3.2 0.00 0.05 0.05 96 1008.5
20260507005403 13 147 3.2 4.8 0.00 0.05 0.05 96 1008.5
20260507004900 13 207 3.2 3.2 0.00 0.05 0.05 96 1008.3
20260507004357 13 251 3.2 4.8 0.00 0.05 0.05 96 1008.4
20260507003854 13 185 3.2 3.2 0.00 0.05 0.05 96 1008.4
20260507003349 13 232 3.2 3.2 0.00 0.05 0.05 96 1008.6
20260507002844 13 250 3.2 3.2 0.00 0.05 0.05 96 1008.3
20260507002341 13 170 0.0 0.0 0.00 0.05 0.05 96 1008.4
20260507001838 13 213 3.2 3.2 0.00 0.05 0.05 96 1008.4
20260507001335 13 251 3.2 4.8 0.00 0.05 0.05 96 1008.5
20260507000831 13 257 1.6 1.6 0.00 0.05 0.05 96 1008.3
20260507000328 13 163 6.4 9.7 0.00 0.05 0.05 96 1008.4
20260506235824 13 187 3.2 4.8 0.00 0.05 0.05 96 1008.4
20260506235320 13 206 3.2 3.2 0.00 0.05 0.05 96 1008.3
20260506234816 13 201 3.2 3.2 0.00 0.05 0.05 96 1008.4
20260506234314 12 238 3.2 4.8 0.00 0.05 0.05 96 1008.3
20260506233812 12 244 4.8 4.8 0.00 0.05 0.05 96 1008.3
20260506233307 12 210 4.8 4.8 0.00 0.05 0.05 96 1008.0
20260506232804 12 214 4.8 4.8 0.00 0.05 0.05 96 1008.2
20260506232300 12 208 3.2 3.2 0.00 0.05 0.05 95 1008.3
20260506231757 12 196 4.8 6.4 0.00 0.05 0.05 95 1008.3
20260506231255 12 200 6.4 6.4 0.00 0.05 0.05 95 1008.3
20260506230752 12 218 3.2 4.8 0.00 0.05 0.05 95 1008.6
20260506230249 12 219 3.2 4.8 0.00 0.05 0.05 95 1008.5
20260506225745 12 256 1.6 3.2 0.00 0.05 0.05 95 1008.4
20260506225242 12 211 3.2 3.2 0.00 0.05 0.05 95 1008.3
20260506224738 12 211 9.7 11.3 0.00 0.05 0.05 95 1008.4
20260506224236 12 194 8.0 9.7 0.18 0.05 0.05 94 1008.1
20260506223732 13 194 1.6 1.6 0.18 0.05 0.05 94 1008.2
20260506223228 13 191 4.8 4.8 0.00 0.03 0.03 94 1008.1
20260506222725 13 230 6.4 6.4 0.00 0.03 0.03 94 1008.4
20260506222220 13 231 4.8 4.8 0.00 0.03 0.03 94 1008.3
20260506221719 13 225 4.8 4.8 0.00 0.03 0.03 94 1008.3
20260506221217 13 215 3.2 4.8 0.00 0.03 0.03 94 1008.4
20260506220714 13 233 3.2 3.2 0.00 0.03 0.03 94 1008.7
20260506220208 13 209 1.6 3.2 0.00 0.03 0.03 94 1008.8
20260506215705 13 225 8.0 11.3 0.00 0.03 0.03 94 1008.8
20260506215200 13 219 3.2 4.8 0.00 0.03 0.03 94 1008.9
20260506214657 13 242 3.2 6.4 0.00 0.03 0.03 94 1008.8
20260506214155 13 243 4.8 6.4 0.00 0.03 0.03 93 1008.4
20260506213653 13 203 6.4 9.7 0.00 0.03 0.03 93 1008.7
20260506213150 13 252 6.4 9.7 0.00 0.03 0.03 92 1008.9
20260506212647 13 250 4.8 6.4 0.00 0.03 0.03 92 1008.8
20260506212142 13 264 4.8 6.4 0.00 0.03 0.03 92 1008.8
20260506211638 13 247 4.8 6.4 0.00 0.03 0.03 92 1008.9
20260506211135 13 205 6.4 9.7 0.00 0.03 0.03 92 1008.9
20260506210632 13 212 4.8 6.4 0.00 0.03 0.03 91 1008.9
20260506210129 13 182 6.4 9.7 0.00 0.03 0.03 91 1009.0
20260506205626 14 252 6.4 9.7 0.00 0.03 0.03 90 1009.1
20260506205126 14 180 4.8 4.8 0.00 0.03 0.03 90 1008.8
20260506204624 14 249 4.8 4.8 0.00 0.03 0.03 90 1009.3
20260506204121 14 208 4.8 6.4 0.00 0.03 0.03 90 1009.1
20260506203619 14 195 3.2 4.8 0.00 0.03 0.03 90 1009.0
20260506203115 14 218 3.2 4.8 0.00 0.03 0.03 90 1009.2
20260506202613 14 218 3.2 4.8 0.00 0.03 0.03 90 1009.3
20260506202109 14 231 6.4 6.4 0.00 0.03 0.03 90 1009.3
20260506201607 14 247 4.8 4.8 0.00 0.03 0.03 90 1009.3
20260506201103 14 220 4.8 4.8 0.00 0.03 0.03 90 1009.3
20260506200559 15 214 6.4 11.3 0.00 0.03 0.03 90 1009.4
20260506200056 15 248 6.4 9.7 0.00 0.03 0.03 90 1009.5
20260506195553 15 173 4.8 4.8 0.18 0.03 0.03 90 1009.3
20260506195049 15 222 4.8 4.8 0.18 0.03 0.03 89 1009.4
20260506194547 15 246 4.8 4.8 0.00 0.00 0.00 88 1009.6
20260506194043 15 191 8.0 9.7 0.00 0.00 0.00 87 1009.7
20260506193541 15 201 4.8 4.8 0.00 0.00 0.00 86 1009.6
20260506193038 16 251 6.4 6.4 0.00 0.00 0.00 84 1009.8
20260506192535 16 265 9.7 14.5 0.00 0.00 0.00 81 1009.6
20260506192031 16 269 4.8 4.8 0.00 0.00 0.00 79 1009.7
20260506191527 17 246 4.8 6.4 0.00 0.00 0.00 77 1009.7
20260506191024 17 186 4.8 6.4 0.00 0.00 0.00 76 1009.7
20260506190521 17 194 1.6 3.2 0.00 0.00 0.00 76 1009.5
20260506190019 17 195 6.4 6.4 0.00 0.00 0.00 76 1009.7
20260506185515 17 206 4.8 6.4 0.00 0.00 0.00 76 1009.9
20260506185011 16 232 6.4 6.4 0.00 0.00 0.00 76 1009.7
20260506184509 17 249 3.2 4.8 0.00 0.00 0.00 76 1009.8
20260506184006 16 221 3.2 4.8 0.00 0.00 0.00 76 1009.9
20260506183501 17 212 3.2 4.8 0.00 0.00 0.00 76 1009.8
20260506182959 17 250 4.8 4.8 0.00 0.00 0.00 75 1010.0
20260506182456 17 213 6.4 16.1 0.00 0.00 0.00 75 1010.1
20260506181953 17 200 3.2 3.2 0.00 0.00 0.00 74 1010.0
20260506181451 17 225 6.4 6.4 0.00 0.00 0.00 74 1010.1
20260506180948 17 259 6.4 12.9 0.00 0.00 0.00 74 1010.1
20260506180444 17 214 6.4 11.3 0.00 0.00 0.00 73 1010.0
20260506175941 18 238 9.7 12.9 0.00 0.00 0.00 72 1010.1
20260506175437 18 232 6.4 6.4 0.00 0.00 0.00 72 1010.1
20260506174934 18 205 4.8 6.4 0.00 0.00 0.00 71 1010.3
20260506174432 18 241 8.0 11.3 0.00 0.00 0.00 70 1010.3
20260506173929 18 203 6.4 6.4 0.00 0.00 0.00 71 1010.2
20260506173426 18 215 9.7 11.3 0.00 0.00 0.00 70 1010.5
20260506172917 18 220 4.8 4.8 0.00 0.00 0.00 70 1010.7
20260506172414 18 215 9.7 11.3 0.00 0.00 0.00 70 1010.6
20260506171911 18 242 6.4 9.7 0.00 0.00 0.00 71 1010.7
20260506171408 18 260 6.4 11.3 0.00 0.00 0.00 71 1010.8
20260506170906 18 222 8.0 12.9 0.00 0.00 0.00 70 1010.5
20260506170402 18 274 8.0 12.9 0.00 0.00 0.00 71 1010.5
20260506165900 18 212 4.8 9.7 0.00 0.00 0.00 70 1010.7
20260506165359 18 212 6.4 11.3 0.00 0.00 0.00 69 1010.7
20260506164854 18 260 9.7 14.5 0.00 0.00 0.00 69 1010.8
20260506164351 19 173 6.4 11.3 0.00 0.00 0.00 69 1011.0
20260506163849 18 231 3.2 4.8 0.00 0.00 0.00 69 1011.0
20260506163343 18 225 11.3 16.1 0.00 0.00 0.00 70 1011.2
20260506162839 18 227 4.8 4.8 0.00 0.00 0.00 70 1011.1
20260506162337 18 208 6.4 6.4 0.00 0.00 0.00 70 1011.1
20260506161834 18 223 4.8 4.8 0.00 0.00 0.00 70 1011.2
20260506161331 18 230 3.2 4.8 0.00 0.00 0.00 69 1011.3
20260506160829 18 212 6.4 9.7 0.00 0.00 0.00 69 1011.3
20260506160325 18 230 8.0 11.3 0.00 0.00 0.00 69 1011.2
20260506155824 18 216 9.7 11.3 0.00 0.00 0.00 68 1011.4
20260506155321 18 185 6.4 9.7 0.00 0.00 0.00 69 1011.4
20260506153433 19 141 8.0 11.3 0.00 0.00 0.00 69 1011.7
20260506152930 19 248 6.4 11.3 0.00 0.00 0.00 68 1011.8
20260506152427 18 232 6.4 9.7 0.00 0.00 0.00 69 1011.7
20260506151926 18 225 6.4 6.4 0.00 0.00 0.00 71 1011.7
20260506151422 18 210 9.7 12.9 0.00 0.00 0.00 71 1011.7
20260506150920 18 212 12.9 17.7 0.00 0.00 0.00 70 1011.8
20260506150416 18 258 4.8 6.4 0.00 0.00 0.00 72 1012.1
20260506145913 18 176 3.2 3.2 0.00 0.00 0.00 72 1011.9
20260506145409 18 191 8.0 11.3 0.00 0.00 0.00 71 1011.8
20260506144907 17 263 6.4 9.7 0.00 0.00 0.00 73 1011.8
20260506144403 17 204 6.4 6.4 0.00 0.00 0.00 72 1011.8
20260506143902 17 236 11.3 14.5 0.00 0.00 0.00 72 1011.8
20260506143358 17 250 4.8 4.8 0.00 0.00 0.00 73 1011.7
20260506142857 18 241 8.0 11.3 0.00 0.00 0.00 72 1011.8
20260506142354 18 205 4.8 4.8 0.00 0.00 0.00 71 1011.8
20260506141852 18 222 4.8 4.8 0.00 0.00 0.00 70 1012.0
20260506141350 18 220 4.8 4.8 0.00 0.00 0.00 71 1011.8
20260506140848 18 161 9.7 11.3 0.00 0.00 0.00 71 1011.6
20260506140344 18 122 6.4 9.7 0.00 0.00 0.00 72 1011.6
20260506135841 18 177 3.2 4.8 0.00 0.00 0.00 72 1011.5
20260506135338 18 167 8.0 9.7 0.00 0.00 0.00 71 1011.9
20260506134834 18 223 9.7 11.3 0.00 0.00 0.00 70 1011.9
20260506134331 18 221 3.2 4.8 0.00 0.00 0.00 72 1011.9
20260506133828 18 198 4.8 4.8 0.00 0.00 0.00 71 1012.1
20260506133325 17 234 4.8 4.8 0.00 0.00 0.00 73 1012.4
20260506132821 17 250 4.8 6.4 0.00 0.00 0.00 74 1012.4
20260506132319 17 241 6.4 9.7 0.00 0.00 0.00 73 1012.2
20260506131817 17 227 3.2 3.2 0.00 0.00 0.00 75 1012.4
20260506131312 17 244 8.0 12.9 0.00 0.00 0.00 75 1012.3
20260506130810 17 240 4.8 6.4 0.00 0.00 0.00 76 1012.2
20260506130306 16 240 4.8 4.8 0.00 0.00 0.00 77 1012.3
20260506125804 16 241 6.4 6.4 0.00 0.00 0.00 77 1012.5
20260506125305 16 201 0.0 1.6 0.00 0.00 0.00 79 1012.2
20260506124800 16 218 6.4 6.4 0.00 0.00 0.00 79 1012.2
20260506124257 16 216 6.4 11.3 0.00 0.00 0.00 79 1012.2
20260506123755 15 226 4.8 4.8 0.00 0.00 0.00 80 1012.2
20260506123253 16 198 3.2 4.8 0.00 0.00 0.00 80 1012.2
20260506122750 16 229 4.8 6.4 0.00 0.00 0.00 79 1012.2
20260506122247 16 189 8.0 9.7 0.00 0.00 0.00 79 1011.9
20260506121745 15 207 11.3 12.9 0.00 0.00 0.00 80 1012.2
20260506121241 15 251 3.2 3.2 0.00 0.00 0.00 81 1012.3
20260506120739 15 176 6.4 6.4 0.00 0.00 0.00 82 1012.6
20260506120237 15 221 0.0 1.6 0.00 0.00 0.00 84 1012.5
20260506115734 14 183 1.6 1.6 0.00 0.00 0.00 85 1012.7
20260506115232 14 217 3.2 3.2 0.00 0.00 0.00 85 1012.7
20260506114730 14 235 6.4 6.4 0.00 0.00 0.00 85 1012.6
20260506114227 15 244 3.2 4.8 0.00 0.00 0.00 84 1012.6
20260506113725 14 206 3.2 4.8 0.00 0.00 0.00 85 1012.6
20260506113223 14 209 6.4 9.7 0.00 0.00 0.00 85 1012.5
20260506112719 14 164 1.6 3.2 0.00 0.00 0.00 86 1012.7
20260506112217 14 209 6.4 6.4 0.00 0.00 0.00 86 1012.8
20260506111714 13 222 3.2 3.2 0.00 0.00 0.00 87 1012.8
20260506111212 13 190 3.2 3.2 0.00 0.00 0.00 87 1012.8
20260506110708 13 207 8.0 9.7 0.00 0.00 0.00 87 1012.8
20260506110206 13 253 4.8 6.4 0.00 0.00 0.00 88 1012.8
20260506105703 13 202 3.2 3.2 0.00 0.00 0.00 88 1012.7
20260506105159 13 217 3.2 3.2 0.00 0.00 0.00 87 1012.7
20260506104658 13 224 4.8 6.4 0.00 0.00 0.00 87 1012.6
20260506104155 13 233 3.2 4.8 0.00 0.00 0.00 88 1012.7
20260506103652 13 243 3.2 3.2 0.00 0.00 0.00 88 1012.4
20260506103149 13 192 3.2 3.2 0.00 0.00 0.00 89 1012.6
20260506102647 13 246 4.8 6.4 0.00 0.00 0.00 89 1012.6
20260506102144 13 228 3.2 3.2 0.00 0.00 0.00 89 1012.6
20260506101641 13 206 3.2 3.2 0.00 0.00 0.00 89 1012.7
20260506101138 13 214 4.8 6.4 0.00 0.00 0.00 89 1012.5
20260506100636 13 209 1.6 3.2 0.00 0.00 0.00 89 1012.4
20260506100133 13 260 4.8 6.4 0.00 0.00 0.00 89 1012.2
20260506095632 13 267 1.6 3.2 0.00 0.00 0.00 89 1012.2
20260506095128 13 240 3.2 4.8 0.00 0.00 0.00 88 1012.3
20260506094626 13 197 3.2 4.8 0.00 0.00 0.00 88 1012.2
20260506094123 13 259 6.4 9.7 0.00 0.00 0.00 88 1012.3
20260506093622 13 237 4.8 4.8 0.00 0.00 0.00 88 1012.2
20260506093119 13 200 1.6 1.6 0.00 0.00 0.00 87 1012.4
20260506092617 13 230 3.2 4.8 0.00 0.00 0.00 87 1012.5
20260506092114 13 199 1.6 1.6 0.00 0.00 0.00 87 1012.4
20260506091612 13 192 3.2 3.2 0.00 0.00 0.00 86 1012.4
20260506091109 14 231 3.2 3.2 0.00 0.00 0.00 86 1012.4
20260506090607 14 254 1.6 3.2 0.00 0.00 0.00 86 1012.4
20260506085600 14 204 6.4 6.4 0.00 0.00 0.00 86 1012.4
20260506085056 14 186 3.2 3.2 0.00 0.00 0.00 86 1012.7
20260506084553 14 245 4.8 4.8 0.00 0.00 0.00 85 1012.5
20260506084049 14 212 6.4 6.4 0.00 0.00 0.00 85 1012.6
20260506083546 14 198 1.6 3.2 0.00 0.00 0.00 85 1012.6
20260506083043 14 251 3.2 4.8 0.00 0.00 0.00 85 1012.7
20260506082540 14 185 3.2 3.2 0.00 0.00 0.00 85 1012.7
20260506082036 14 212 6.4 6.4 0.00 0.00 0.00 85 1012.6
20260506081534 14 274 3.2 3.2 0.00 0.00 0.00 85 1012.6
20260506081031 14 212 1.6 3.2 0.00 0.00 0.00 85 1012.7
20260506080529 14 224 1.6 3.2 0.00 0.00 0.00 85 1012.8
20260506073512 14 232 3.2 4.8 0.00 0.00 0.00 85 1012.6
20260506073009 14 235 6.4 6.4 0.00 0.00 0.00 85 1012.5
20260506072506 14 246 3.2 4.8 0.00 0.00 0.00 85 1012.9
20260506072004 14 247 3.2 3.2 0.00 0.00 0.00 85 1012.6
20260506071502 14 217 3.2 3.2 0.00 0.00 0.00 85 1012.7
20260506070959 14 247 3.2 3.2 0.00 0.00 0.00 84 1012.6
20260506070456 14 211 3.2 4.8 0.00 0.00 0.00 84 1012.7
20260506062433 15 167 1.6 1.6 0.00 0.00 0.00 82 1012.7
20260506061929 15 211 3.2 3.2 0.00 0.00 0.00 81 1012.4
20260506061426 15 208 3.2 3.2 0.00 0.00 0.00 81 1012.7
20260506060924 15 263 3.2 4.8 0.00 0.00 0.00 81 1012.6
20260506060422 15 205 4.8 9.7 0.00 0.00 0.00 80 1012.5
20260506051354 14 170 4.8 6.4 0.00 0.00 0.00 80 1013.0
20260506050851 14 247 6.4 9.7 0.00 0.00 0.00 80 1013.0
20260506050349 14 236 4.8 4.8 0.00 0.00 0.00 80 1013.0
20260506044839 14 257 1.6 4.8 0.00 0.00 0.00 80 1013.3
20260506044337 14 221 3.2 4.8 0.00 0.00 0.00 80 1013.1
20260506043833 14 222 6.4 6.4 0.00 0.00 0.00 80 1013.4
20260506043331 14 197 4.8 6.4 0.00 0.00 0.00 80 1013.2
20260506042829 14 216 4.8 4.8 0.00 0.00 0.00 80 1013.1
20260506042328 14 191 6.4 9.7 0.00 0.00 0.00 79 1013.1
20260506041826 14 242 4.8 4.8 0.00 0.00 0.00 79 1013.0
20260506041323 14 268 3.2 4.8 0.00 0.00 0.00 79 1013.2
20260506040820 14 238 4.8 4.8 0.00 0.00 0.00 78 1013.0
20260506040317 14 253 4.8 9.7 0.00 0.00 0.00 78 1013.1
20260506035813 14 195 6.4 6.4 0.00 0.00 0.00 78 1013.0
20260506035311 14 195 6.4 9.7 0.00 0.00 0.00 78 1013.0
20260506034808 14 225 6.4 6.4 0.00 0.00 0.00 77 1013.1
20260506034305 14 252 4.8 6.4 0.00 0.00 0.00 77 1012.9
20260506033802 14 201 1.6 1.6 0.00 0.00 0.00 76 1013.1
20260506033259 14 211 1.6 1.6 0.00 0.00 0.00 76 1013.0
20260506032756 14 195 3.2 3.2 0.00 0.00 0.00 76 1012.9
20260506032253 14 236 3.2 3.2 0.00 0.00 0.00 75 1013.0
20260506031749 14 226 3.2 4.8 0.00 0.00 0.00 75 1012.7
20260506031247 14 236 4.8 6.4 0.00 0.00 0.00 75 1012.9